Location: Katowice
(50.2611°N, 19.0242°E)
Time: 23:54:37
(UTC+02:00)

Transit 2A - Visible Passes

Search period start: 15 July 2019 00:00
Search period end: 25 July 2019 00:00
Orbit: 594 x 965 km, 66.7° (Epoch: 15 July)

Date Brightness Start Highest point End Pass type
(mag) Time Alt. Az. Time Alt. Az. Time Alt. Az.
15 Jul 8.9 01:34:10 10° NNW 01:38:15 20° NNE 01:42:05 10° ENE visible
15 Jul 6.9 03:17:22 10° NNW 03:22:48 53° NE 03:27:39 10° ESE visible
15 Jul 8.5 21:27:38 10° W 21:33:09 31° NW 21:38:22 10° NNE visible
15 Jul 9.2 23:14:34 10° NW 23:18:13 16° N 23:21:43 10° NNE visible
16 Jul 9.0 00:59:58 10° NNW 01:03:45 18° NNE 01:07:19 10° ENE visible
16 Jul 7.4 02:43:16 10° NNW 02:48:32 41° NE 02:53:15 10° ESE visible
16 Jul 9.1 22:39:43 10° WNW 22:43:40 18° NNW 22:47:27 10° NNE visible
17 Jul 9.0 00:25:42 10° NNW 00:29:12 16° N 00:32:32 10° NE visible
17 Jul 7.8 02:09:11 10° NNW 02:14:13 33° NE 02:18:46 10° E visible
17 Jul 6.0 03:52:29 10° NW 03:57:47 59° WSW 04:02:31 10° SSE visible
17 Jul 9.0 22:04:51 10° WNW 22:09:09 19° NNW 22:13:15 10° NNE visible
17 Jul 9.0 23:51:18 10° NNW 23:54:39 15° N 23:57:49 10° NE visible
18 Jul 8.2 01:35:05 10° NNW 01:39:50 27° NNE 01:44:10 10° E visible
18 Jul 5.9 03:18:18 10° NW 03:23:44 81° WSW 03:28:34 10° SSE visible
18 Jul 8.9 21:30:00 10° WNW 21:34:41 22° NNW 21:39:06 10° NNE visible
18 Jul 9.0 23:16:48 10° NW 23:20:04 15° N 23:23:11 10° NE visible
19 Jul 8.5 01:01:00 10° NNW 01:05:25 23° NNE 01:09:29 10° E visible
19 Jul 6.1 02:44:09 10° NW 02:49:36 75° NE 02:54:27 10° SE visible
19 Jul 9.0 22:42:10 10° NW 22:45:30 15° N 22:48:41 10° NNE visible
20 Jul 8.7 00:26:51 10° NNW 00:30:57 20° NNE 00:34:45 10° ENE visible
20 Jul 6.6 02:10:01 10° NNW 02:15:25 56° NE 02:20:13 10° SE visible
20 Jul 6.8 03:53:52 10° NW 03:58:14 27° WSW 04:02:15 10° SSW visible
20 Jul 8.9 22:07:25 10° NW 22:10:56 16° N 22:14:17 10° NNE visible
20 Jul 8.7 23:52:41 10° NNW 23:56:26 18° NNE 23:59:58 10° ENE visible
21 Jul 7.1 01:35:56 10° NNW 01:41:10 43° NE 01:45:51 10° ESE visible
21 Jul 6.4 03:19:27 10° NW 03:24:20 38° WSW 03:28:44 10° S visible
21 Jul 8.9 21:32:35 10° NW 21:36:23 17° NNW 21:40:00 10° NNE visible
21 Jul 8.7 23:18:26 10° NNW 23:21:54 16° NNE 23:25:11 10° NE visible
22 Jul 7.6 01:01:50 10° NNW 01:06:51 34° NE 01:11:23 10° ESE visible
22 Jul 6.0 02:45:10 10° NW 02:50:21 54° WSW 02:54:33 13° SSE visible
22 Jul 8.8 22:44:05 10° NNW 22:47:21 15° N 22:50:27 10° NE visible
23 Jul 7.9 00:27:46 10° NNW 00:32:29 28° NNE 00:36:48 10° E visible
23 Jul 5.8 02:10:58 10° NW 02:16:18 76° WSW 02:19:57 17° SSE visible
23 Jul 7.7 03:56:28 10° W 03:58:23 12° WSW 04:00:15 10° SW visible
23 Jul 8.8 22:09:37 10° NNW 22:12:47 15° N 22:15:48 10° NE visible
23 Jul 8.2 23:53:40 10° NNW 23:58:04 23° NNE 00:02:08 10° E visible
24 Jul 5.9 01:36:48 10° NW 01:42:12 80° NE 01:45:37 20° SE visible
24 Jul 7.3 03:21:15 10° WNW 03:24:36 18° WSW 03:26:02 16° SW visible
24 Jul 8.8 21:35:01 10° NW 21:38:12 15° N 21:41:16 10° NNE visible
24 Jul 8.4 23:19:33 10° NNW 23:23:37 20° NNE 23:27:24 10° ENE visible
